Aeroporto :
LOGIN :

Iscrizione | Disclaimer

   EN    FR    IT 

 










Sommario :    VFR   VFR Marginale   IFR   IFR Intensivo   IFR Molto Intensivo
Visibilità : 
Base nubi : 
>= 8 km
>= 3000ft
5 / 8 km
1000 / 3000 ft
1500m / 5 km
500 / 1000 ft
800 / 1500m
200 / 500 ft
< 800m
< 200 ft
Simboli :   Temporali  Nebbia  Neve Forte  Precipitazioni Forti  Vento > 20 kt
SIGMETs :   Varie  Temporali  Ghiacco  Turbolenza  Onda orograficha  Ceneri Vulcaniche







- Altitudine del aeroporto : 32 ft
- Codice IATA : LKZ


EGUL - RAF Lakenheath

ULTIMO METAR :
  • 220156Z AUTO 26003KT 9999 CLR 07/03 A3010 RMK AO2 SLP196 T00650028 $

METARs OBSOLETI :
  • 220056Z AUTO 29003KT 9999 CLR 08/04 A3009 RMK AO2 SLP193 T00770037 $
  • 212356Z AUTO 25004KT 9999 CLR 09/09 A3008 RMK AO2 SLP189 T00920086 10182 20090 401920068 51002 $

TAF AMD TAF EGUL
Valido dal 22 a 02 ore il 23 a 02 ore UTC


220219Z 2202/2302 VRB06KT 9999 SCT050 BKN060 QNH3004INS
TEMPO 2204/2206 5000 BR
BECMG 2206/2207 27009KT 9999 SCT070 QNH3006INS
BECMG 2212/2213 25009KT 9999 BKN080 620803 QNH3004INS
BECMG 2216/2217 VRB06KT 9999 BKN050 620803 QNH3003INS TX20/2215Z TN05/2204Z
Nessun NOTAM noto per questo aeroporto.



MetMap, La meteo Aeronautica in un colpo d'occhio ! - Copyright ORBIFLY Dicembre 2007 - Disclaimer

ORBIFLY MET'MAP TEAM :

Programmazione e sviluppo : Alexandra Zaïnal
Concezione e sviluppo : Baudouin d'Aumeries
Co-Programmazione e sviluppo : Marc-Olivier Méhu
Supporto tecnico e logistico : Manuel Goepfert
Aiuto per la traduzione : Arnaldo La Scala

Contatto : metmap@orbifly.com




FONTI E CREDITI :

   NOAA